[[{"header":{"parameterUnit":"m.s-1","parameterCategory":1,"la1":30.2991,"la2":30.254,"lo1":-89.0895,"lo2":-89.0444,"dy":0.0017,"dx":0.0017,"nx":28,"ny":28,"refTime":"2024-10-12T03:00:00:Z","depth":0,"parameterNumber":2,"parameterNumberName":"U-component_of_WINDS"},"data":[0,0,0,0,0,0,0,0,0,0,0,0,0,0,0,0,0,0,0,0,0,0,0,0,0,0,0,0,0,0,0,0,0,0,0,0,0,0,0,0,0,0,0,0,0,0,0,0,0,0,0,0,0,0,0,0,0,0,1.5289,1.5289,0,1.525,1.5249,1.5249,1.5212,1.5211,1.5211,1.521,1.5168,1.5167,1.5167,0,0,0,0,0,0,0,0,0,0,0,0,0,1.5328,1.5328,1.5289,1.5289,1.5288,1.525,1.5249,1.5249,1.5212,1.5211,1.521,1.521,1.5168,1.5167,1.5167,0,0,0,0,0,0,0,0,0,0,0,0,0,1.5302,1.5327,1.5289,1.5265,1.5263,1.525,1.5249,1.5249,1.5212,1.5211,1.521,1.521,1.5169,1.5168,1.5167,1.5174,0,0,1.5163,1.5163,0,0,0,0,0,0,0,0,1.5304,1.5301,1.5269,1.5267,1.5264,1.5235,1.5248,1.5224,1.5212,1.5231,1.521,1.5209,1.5191,1.5188,1.5182,1.5172,1.5171,1.5163,1.5163,1.5162,1.5162,0,0,0,0,0,0,0,1.5306,1.5302,1.5274,1.5269,1.5266,1.5255,1.525,1.5243,1.5215,1.5229,1.5226,1.5222,1.5189,1.5183,1.5181,1.517,1.5163,1.5162,1.5162,1.5161,1.516,1.5161,0,0,0,0,0,0,1.5312,1.5304,1.5275,1.5272,1.5283,1.5255,1.525,1.5245,1.5215,1.521,1.5223,1.5221,1.5185,1.5182,1.5179,1.5183,1.5162,1.5161,1.5161,1.5159,1.516,1.5161,0,0,0,0,0,0,1.5313,1.5309,1.5277,1.5287,1.5282,1.5255,1.525,1.5245,1.5238,1.5211,1.5205,1.5222,1.5184,1.5181,1.5175,1.5182,1.5161,1.516,1.5159,1.516,1.516,1.5194,0,0,0,0,0,0,1.5314,1.531,1.5314,1.5288,1.5282,1.5275,1.525,1.5244,1.5237,1.5234,1.5208,1.5203,1.5184,1.5177,1.5174,1.518,1.5159,1.5158,1.5159,1.516,1.5192,1.5196,1.5199,0,0,0,0,0,1.5315,1.5325,1.5314,1.5311,1.5287,1.5275,1.5272,1.5249,1.5238,1.524,1.5222,1.5204,1.5181,1.5176,1.5173,1.5179,1.5157,1.5159,1.516,1.5191,1.5195,1.5199,0,0,0,0,0,0,1.5353,1.5322,1.5309,1.5311,1.5296,1.5269,1.5272,1.5255,1.5243,1.524,1.5212,1.5207,1.5203,1.519,1.5186,1.5182,1.5167,1.5167,1.5191,1.5195,1.5199,1.5201,1.5158,0,0,0,0,0,1.5362,1.5356,1.5328,1.5333,1.5326,1.53,1.5294,1.5278,1.5261,1.5254,1.5236,1.5219,1.5207,1.5201,1.5189,1.519,1.5182,1.5192,1.5195,1.5198,1.5199,1.5195,1.5198,1.5165,1.5165,1.5165,0,0,1.538,1.5362,1.536,1.534,1.5326,1.5319,1.5295,1.529,1.5283,1.5253,1.5246,1.5232,1.5211,1.5208,1.5205,1.5197,1.5206,1.52,1.5203,1.5201,1.5197,1.52,1.5203,1.5166,1.5166,1.5166,0,0,1.5408,1.5395,1.5396,1.5382,1.5361,1.5343,1.5343,1.5318,1.5307,1.5299,1.5275,1.5267,1.5249,1.5234,1.5224,1.5243,1.5225,1.524,1.5258,1.5254,1.5257,1.5259,1.5263,1.5266,1.5241,1.5241,1.5241,0,1.5432,1.5422,1.5398,1.5393,1.5383,1.5355,1.5354,1.5342,1.5318,1.5312,1.5302,1.5277,1.5261,1.5252,1.5256,1.525,1.5247,1.5243,1.5259,1.5261,1.5262,1.5266,1.5268,1.5243,1.5242,1.5242,1.5242,0,1.5451,1.5444,1.5447,1.5424,1.5415,1.5413,1.5386,1.538,1.5363,1.5346,1.5336,1.5316,1.5298,1.5295,1.528,1.5283,1.5278,1.5264,1.5248,1.5267,1.527,1.5272,1.5245,1.5245,1.5244,1.5244,0,0,1.5504,1.5466,1.5467,1.5455,1.5429,1.5422,1.5416,1.5399,1.5392,1.5376,1.5369,1.5353,1.5339,1.5327,1.5309,1.5307,1.5319,1.5292,1.5291,1.5296,1.5318,1.5328,1.533,1.5307,1.5307,1.5308,1.5319,0,1.5526,1.5516,1.5492,1.5488,1.5479,1.5451,1.5445,1.5428,1.541,1.5399,1.538,1.5368,1.5351,1.5344,1.534,1.5319,1.5323,1.5318,1.5298,1.5298,1.5304,1.5332,1.5343,1.5355,1.5321,1.5321,1.5321,0,1.5552,1.5536,1.5531,1.5502,1.5498,1.5494,1.5474,1.5464,1.5442,1.5429,1.5415,1.5395,1.5385,1.537,1.5354,1.5351,1.5341,1.5329,1.5329,1.5326,1.531,1.5328,1.5359,1.536,1.5323,1.5323,1.5323,0,1.5587,1.5566,1.5559,1.555,1.5517,1.5514,1.55,1.5477,1.5466,1.5449,1.5441,1.5423,1.5412,1.5397,1.5371,1.5363,1.5357,1.5341,1.5344,1.5345,1.5344,1.5345,1.5373,1.534,1.534,1.534,1.534,0,1.5614,1.5611,1.5574,1.557,1.5565,1.5537,1.5533,1.5516,1.5495,1.5485,1.546,1.5451,1.5418,1.5404,1.5384,1.5372,1.5368,1.5356,1.5351,1.5358,1.5359,1.5351,1.5349,1.5341,1.5341,1.5341,1.5341,0,1.5653,1.5629,1.5619,1.5588,1.5579,1.5577,1.5549,1.5543,1.5523,1.5511,1.5507,1.5475,1.5458,1.5431,1.5406,1.5391,1.5383,1.5374,1.539,1.5387,1.5391,1.539,1.5414,1.5415,1.5384,1.5384,1.5384,0,1.5671,1.5668,1.5636,1.5628,1.5615,1.5602,1.5591,1.5563,1.5552,1.5525,1.5521,1.5501,1.5484,1.5457,1.5431,1.5411,1.5401,1.541,1.5398,1.5404,1.5399,1.5399,1.5397,1.5413,1.5414,1.5414,1.5415,0,1.5705,1.5692,1.5678,1.5659,1.5646,1.5629,1.5611,1.5606,1.5572,1.5561,1.5543,1.553,1.5503,1.5483,1.5458,1.5442,1.5422,1.5419,1.5418,1.5425,1.5434,1.5427,1.5397,1.5418,1.5418,1.5418,1.5418,1.5417,1.5733,1.5728,1.5704,1.5688,1.5671,1.5654,1.5645,1.5624,1.5609,1.5585,1.5569,1.5551,1.5525,1.549,1.5474,1.5458,1.545,1.545,1.5449,1.5449,1.5451,1.5437,1.5454,1.5454,1.5454,1.5454,1.5453,0,1.5763,1.5746,1.5732,1.5706,1.5693,1.5676,1.5654,1.5644,1.5628,1.5607,1.559,1.5567,1.5547,1.5519,1.5496,1.5489,1.5479,1.5483,1.5483,1.5479,1.5461,1.5463,1.5492,1.5492,1.5492,1.5492,1.5492,1.5492,1.5778,1.5767,1.5751,1.5731,1.5713,1.5696,1.5685,1.5668,1.565,1.5627,1.561,1.5591,1.5566,1.5541,1.552,1.5512,1.5504,1.5512,1.5501,1.5484,1.5481,1.5477,1.5479,1.551,1.551,1.5519,1.552,1.552]},{"header":{"parameterUnit":"m.s-1","parameterCategory":1,"la1":30.2991,"la2":30.254,"lo1":-89.0895,"lo2":-89.0444,"dy":0.0017,"dx":0.0017,"nx":28,"ny":28,"refTime":"2024-10-12T03:00:00:Z","depth":0,"parameterNumber":3,"parameterNumberName":"V-component_of_WINDS"},"data":[0,0,0,0,0,0,0,0,0,0,0,0,0,0,0,0,0,0,0,0,0,0,0,0,0,0,0,0,0,0,0,0,0,0,0,0,0,0,0,0,0,0,0,0,0,0,0,0,0,0,0,0,0,0,0,0,0,0,1.4928,1.4928,0,1.4935,1.4935,1.4936,1.4907,1.4906,1.4905,1.4904,1.4911,1.4912,1.4913,0,0,0,0,0,0,0,0,0,0,0,0,0,1.4885,1.4886,1.4928,1.4928,1.4928,1.4935,1.4935,1.4936,1.4907,1.4906,1.4905,1.4904,1.4911,1.4912,1.4913,0,0,0,0,0,0,0,0,0,0,0,0,0,1.49,1.4887,1.4928,1.4914,1.4913,1.4935,1.4935,1.4936,1.4907,1.4906,1.4904,1.4903,1.4911,1.4912,1.4913,1.4948,0,0,1.4918,1.4919,0,0,0,0,0,0,0,0,1.4899,1.4901,1.4916,1.4915,1.4914,1.4919,1.4923,1.494,1.4907,1.4909,1.4904,1.4903,1.4915,1.4916,1.492,1.4949,1.4949,1.4918,1.4919,1.492,1.492,0,0,0,0,0,0,0,1.4898,1.4901,1.4931,1.4917,1.4915,1.4907,1.4908,1.4926,1.4919,1.4909,1.4907,1.4908,1.4914,1.4919,1.492,1.4949,1.4918,1.4919,1.492,1.4921,1.5003,1.5004,0,0,0,0,0,0,1.4899,1.49,1.4931,1.4931,1.4903,1.4909,1.491,1.4919,1.4919,1.4918,1.4909,1.4907,1.4917,1.4918,1.492,1.4959,1.492,1.4921,1.4922,1.5002,1.5003,1.5005,0,0,0,0,0,0,1.4898,1.4902,1.493,1.4915,1.4918,1.4911,1.4921,1.4919,1.4924,1.4919,1.4918,1.4916,1.4916,1.4918,1.4941,1.4959,1.4922,1.4923,1.5,1.5002,1.5004,1.5038,0,0,0,0,0,0,1.4897,1.4902,1.4916,1.4915,1.4919,1.4952,1.4923,1.4921,1.4927,1.4924,1.4925,1.4924,1.4915,1.4939,1.4942,1.496,1.4924,1.4998,1.5001,1.5003,1.5035,1.504,1.5045,0,0,0,0,0,1.4896,1.4926,1.4917,1.4921,1.4936,1.4953,1.4955,1.4945,1.4929,1.4942,1.4938,1.4924,1.4956,1.4941,1.4945,1.4963,1.4997,1.5,1.5003,1.5032,1.5039,1.5045,0,0,0,0,0,0,1.4929,1.4926,1.4916,1.4947,1.495,1.4948,1.4965,1.4953,1.4961,1.4957,1.4944,1.4944,1.4969,1.4968,1.4952,1.4995,1.4974,1.4978,1.4995,1.5001,1.5006,1.5005,1.4925,0,0,0,0,0,1.494,1.4954,1.495,1.4978,1.498,1.4972,1.4979,1.497,1.4974,1.4975,1.4973,1.4976,1.4986,1.4994,1.5004,1.5034,1.5033,1.5049,1.5054,1.5058,1.5061,1.5074,1.5081,1.5014,1.5014,1.5014,0,0,1.4963,1.4963,1.4973,1.4985,1.4986,1.5,1.4974,1.499,1.5,1.4977,1.4998,1.4997,1.4999,1.5025,1.5036,1.5026,1.5079,1.5062,1.5065,1.5066,1.5078,1.5084,1.509,1.5016,1.5016,1.5015,0,0,1.5012,1.5014,1.5036,1.5037,1.504,1.5034,1.5039,1.5038,1.5036,1.5056,1.5039,1.505,1.5069,1.507,1.5074,1.5119,1.5105,1.5123,1.5149,1.5162,1.5168,1.5172,1.5186,1.5192,1.5126,1.5126,1.5126,0,1.504,1.5061,1.5049,1.5065,1.507,1.5049,1.507,1.5072,1.5078,1.5081,1.5069,1.509,1.5091,1.5115,1.5126,1.513,1.5134,1.5122,1.5168,1.5172,1.5177,1.519,1.5195,1.5128,1.5128,1.5128,1.5127,0,1.5094,1.5108,1.5125,1.513,1.5137,1.5156,1.5145,1.5153,1.5143,1.5138,1.5157,1.5156,1.5164,1.5169,1.5161,1.5192,1.5185,1.5171,1.5148,1.5185,1.5197,1.5202,1.5131,1.513,1.5129,1.5129,0,0,1.5166,1.5161,1.5168,1.5168,1.5168,1.5178,1.5195,1.5202,1.5208,1.5212,1.5224,1.5239,1.5225,1.5229,1.522,1.5231,1.5264,1.5215,1.5215,1.5223,1.5295,1.5305,1.5312,1.5255,1.5256,1.5256,1.5295,0,1.5212,1.524,1.5228,1.5258,1.5269,1.5248,1.5262,1.5263,1.5258,1.5266,1.526,1.527,1.5252,1.5253,1.5264,1.5258,1.5278,1.5255,1.5264,1.5265,1.5264,1.5318,1.533,1.5366,1.5299,1.53,1.5301,0,1.527,1.5274,1.5305,1.5299,1.5304,1.5317,1.532,1.5329,1.5328,1.5323,1.5326,1.5313,1.5327,1.5305,1.5323,1.5308,1.5311,1.5308,1.5309,1.5309,1.5285,1.5318,1.5377,1.5382,1.5309,1.5308,1.5307,0,1.5316,1.533,1.5349,1.5351,1.5346,1.5355,1.5353,1.5351,1.5355,1.5358,1.536,1.5365,1.5367,1.5371,1.5359,1.5344,1.5377,1.5355,1.5372,1.5372,1.538,1.5379,1.5439,1.5384,1.5384,1.5384,1.5384,0,1.5368,1.5387,1.537,1.5381,1.5401,1.5386,1.5405,1.5401,1.5399,1.5408,1.5391,1.54,1.5384,1.539,1.5381,1.5396,1.5397,1.5393,1.539,1.5394,1.5394,1.5395,1.5391,1.5385,1.5385,1.5385,1.5384,0,1.5424,1.5413,1.5432,1.5425,1.5423,1.5438,1.5431,1.5441,1.5433,1.5445,1.5447,1.5435,1.5442,1.543,1.5436,1.5429,1.5449,1.5443,1.545,1.5447,1.5464,1.5462,1.5526,1.5532,1.5474,1.5475,1.5475,0,1.5457,1.5471,1.5464,1.5469,1.5468,1.5476,1.5479,1.5465,1.5469,1.5467,1.5476,1.5481,1.5484,1.5496,1.5487,1.549,1.5483,1.5505,1.5484,1.5486,1.5481,1.548,1.548,1.5509,1.551,1.5511,1.5511,0,1.5517,1.551,1.5516,1.5519,1.5523,1.5525,1.5525,1.553,1.5514,1.5519,1.5525,1.5528,1.5532,1.5536,1.5537,1.5534,1.5519,1.5518,1.5522,1.5525,1.5528,1.5525,1.546,1.5517,1.5516,1.5516,1.5515,1.5515,1.5561,1.5571,1.5567,1.5573,1.5571,1.5572,1.5579,1.5572,1.5577,1.5579,1.557,1.5578,1.5573,1.5573,1.5571,1.5576,1.5566,1.5572,1.5573,1.5574,1.5576,1.5528,1.5576,1.5576,1.5576,1.5575,1.5575,0,1.5618,1.5614,1.562,1.562,1.5624,1.5609,1.5608,1.5612,1.5619,1.5617,1.5619,1.5625,1.5628,1.5619,1.5621,1.5626,1.5619,1.5627,1.5626,1.5625,1.5586,1.5582,1.5632,1.5632,1.5632,1.5632,1.5632,1.5632,1.5648,1.5663,1.5656,1.5669,1.5664,1.5672,1.5672,1.5671,1.5668,1.5675,1.5678,1.5672,1.5666,1.5666,1.5668,1.5665,1.5665,1.5675,1.567,1.5634,1.5628,1.5623,1.5618,1.5676,1.5676,1.5708,1.5708,1.5708]}]]